Location: Caualo
(45.5667°N, 10.8667°E)
Time: 12:21:58
(UTC+00:00)

Cosmos 1727 Rocket - Pass Details

Date: 07 June 2020
Orbit: 960 x 997 km, 82.9° (Epoch: 01 July)

Event Time Altitude Azimuth Distance (km) Brightness Sun altitude
Rises 02:41:13 0° 350° (N) 3,659 7.5 -7.2°
Reaches altitude 10° 02:43:43 10° 350° (N) 2,706 6.8 -6.9°
Maximum altitude 02:49:55 80° 264° (W) 980 4.0 -6.1°
Drops below altitude 10° 02:56:03 10° 179° (S) 2,689 6.0 -5.3°
Sets 02:58:32 0° 178° (S) 3,634 6.6 -5.0°
